Location: G�ndlingen
(48.0142°N, 7.6396°E)
Time: 01:58:22
(UTC+00:00)

SL-16 R/B - Pass Details

Date: 05 July 2020
Orbit: 839 x 850 km, 71.0° (Epoch: 04 August)

Event Time Altitude Azimuth Distance (km) Brightness Sun altitude
Exits shadow 23:00:53 34° 183° (S) 1,365 2.7 -18.9°
Maximum altitude 23:03:20 66° 113° (ESE) 923 2.2 -19.0°
Drops below altitude 10° 23:08:59 10° 32° (NNE) 2,482 5.4 -19.1°
Sets 23:11:27 0° 30° (NNE) 3,423 6.3 -19.1°
